www.pogodaiklimat.ru
Время
(UTC), дата
03 22.11
06 22.11
09 22.11
12 22.11
15 22.11
18 22.11
21 22.11
00 23.11
03 23.11
06 23.11
09 23.11
12 23.11
15 23.11
18 23.11
21 23.11
00 24.11
03 24.11
06 24.11
09 24.11
12 24.11
15 24.11
18 24.11
21 24.11
00 25.11
03 25.11
06 25.11
09 25.11
12 25.11
15 25.11
18 25.11
21 25.11
00 26.11
03 26.11
06 26.11
09 26.11
12 26.11
15 26.11
18 26.11
21 26.11
00 27.11
03 27.11
06 27.11
09 27.11
12 27.11
15 27.11
18 27.11
21 27.11
00 28.11
03 28.11
06 28.11
09 28.11
12 28.11
15 28.11
18 28.11
21 28.11
00 29.11
Ветер
(напр.,м/с)
Видим. Явления Облачность Т
(С)
Тd
(С)
f
(%)
Тe
(С)
Тes
(С)
Комфортность P
(гПа)
Po
(гПа)
Тmin
(С)
Tmax
(С)
R
(мм)
R24
(мм)
S
(см)
ЮЗ 7-10
{13}
4000 м дымка 10/10 300 м
[Sc]
+4.4 +3.7 95 -2 -2 по сезону 1016.3 1014.5 +2.1 0.3
ЮЗ 6-11
{11}
4000 м дымка 10/10 300 м
[Sc]
+4.9 +4.0 94 -0 -0 по сезону 1015.4 1013.6 +2.5 0.3
ЮЗ 5-9
{11}
4000 м дымка 10/10 300 м
[Sc]
+6.4 +5.0 91 +2 +2 по сезону 1014.2 1012.4
Ю 7-10
{13}
4000 м слаб. дождь {морось} 10/10 300 м
[Frnb Ns]
+5.9 +5.1 95 +1 +1 по сезону 1012.4 1010.6
ЮЗ 6-9
{13}
4000 м ливневой дождь 8/8 300 м
[Cb cap]
+6.7 +5.3 91 +2 +2 по сезону 1012.1 1010.4 2
ЮЗ 6-10
{11}
4000 м дымка {ливн. дождь, дождь} 4/4 600 м
[Cu hum]
+7.6 +5.4 86 +3 +3 по сезону 1013.2 1011.5 +7.8 5
ЮЗ 7-12
{12}
4000 м дымка 6/6 1000 м
[Cu hum]
+6.6 +4.9 89 +2 +2 по сезону 1014.0 1012.3
ЮЗ 6-10
{12}
4000 м дымка {ливн. дождь} 5/5 300 м
[Cu hum]
+6.3 +4.7 89 +2 +2 по сезону 1014.4 1012.6
ЮЗ 7-10
{13}
4000 м дымка 5/5 300 м
[Cu hum]
+6.0 +4.2 88 +1 +1 по сезону 1014.1 1012.3 +5.8 4
ЮЗ 6-9
{13}
4000 м дымка 10/5 300 м
[Cu hum As trans Cs]
+5.7 +3.9 88 +1 +1 по сезону 1013.7 1011.9 +5.6 0.4
ЮЗ 8-12
{12}
4000 м в посл. час ливневой дождь 10/6 300 м
[Cb cap Ac As]
+6.3 +4.0 85 +1 +1 по сезону 1014.1 1012.3
ЮЗ 8-10
{12}
4000 м в посл. час ливневой дождь 9/6 300 м
[Cb cap Ac As]
+6.4 +4.8 89 +1 +1 по сезону 1013.8 1012.0
ЮЗ 5-8
{13}
4000 м в посл. час ливневой дождь 9/5 600 м
[Cb cap Ac As]
+5.4 +4.2 92 +1 +1 по сезону 1014.7 1012.9 3
ЮЗ 3-5
{8}
4000 м в посл. час ливневой дождь 8/6 600 м
[Cb cap Ac trans]
+5.8 +4.8 93 +2 +2 по сезону 1015.9 1014.1 +6.4 4
З 4-5
{8}
4000 м дымка 6/3 600 м
[Sc Ac trans Ci fib]
+5.7 +3.9 88 +2 +2 по сезону 1017.5 1015.7
З 4-7
{7}
10 км 4/3 600 м
[Sc Ci fib]
+6.3 +3.5 82 +3 +3 по сезону 1019.2 1017.4
ЮЗ 3-4
{9}
4000 м дымка 3/3 600 м
[Sc Ci fib]
+5.5 +4.0 90 +2 +2 по сезону 1019.8 1018.0 +5.1 0.7
ЮЗ 3-6
{9}
4000 м в посл. час ливневой дождь 9/6 600 м
[Cb cap Ac As]
+6.7 +5.4 91 +4 +4 тепло 1020.4 1018.6 +5.1 0.1
ЮЗ 6-8
{10}
4000 м дымка {ливн. дождь} 9/8 300 м
[Sc Ac cuf]
+6.6 +5.4 92 +2 +2 по сезону 1020.9 1019.1
ЮЗ 6-9
{11}
10 км {ливн. дождь} 10/4 600 м
[Sc Ac As]
+6.9 +3.8 81 +2 +3 по сезону 1020.1 1018.3
ЮЗ 5-8
{10}
4000 м дымка 10/3 600 м
[Sc Ac As]
+5.8 +3.6 86 +1 +1 по сезону 1019.8 1018.0 0.4
ЮЗ 5-8
{10}
4000 м дымка 10/6 600 м
[Sc As trans]
+5.9 +3.7 86 +1 +1 по сезону 1019.1 1017.3 +7.3 0.3
ЮЗ 6-9
{9}
4000 м дымка 10/10 300 м
[St]
+6.2 +4.2 87 +1 +1 по сезону 1019.1 1017.3
ЮЗ 5-7
{9}
4000 м слаб. морось 10/10 200 м
[St]
+5.8 +5.4 97 +1 +1 по сезону 1019.3 1017.5
ЮЗ 3-5
{8}
4000 м дымка 10/10 300 м
[St]
+6.1 +4.9 92 +3 +3 по сезону 1019.2 1017.4 +5.4 0.0
ЮЗ 4-6
{6}
4000 м дымка 10/10 600 м
[Sc]
+6.2 +4.8 91 +2 +2 по сезону 1020.0 1018.2 +5.8 0.0
ЮЗ 4-5
{7}
4000 м дымка 10/10 300 м
[Sc]
+6.9 +4.9 87 +3 +3 по сезону 1020.5 1018.7
-4
{5}
10 км н/о +7.8 +5.2 84 +6 +6 тепло 1020.2 1018.4
Ю 2-3
{4}
4000 м дымка 3/0
[Ac trans Ci fib]
+4.7 +3.3 91 +2 +2 по сезону 1020.2 1018.4
Ю 2-3
{3}
4000 м дымка 1 балл +1.9 +1.5 97 -2 -2 по сезону 1020.0 1018.2 +8.9
Ю 2-3
{3}
4000 м дымка ясно -0.2 -0.5 98 -4 -4 прохладно 1020.0 1018.2
Ю 1-2
{3}
4000 м дымка ясно -1.1 -1.3 99 -3 -3 по сезону 1019.1 1017.3
ЮВ 1-2
{3}
4000 м дымка ясно -1.7 -1.9 99 -4 -4 прохладно 1018.2 1016.4 -2.0
Ю 2-3
{3}
4000 м дымка 3/0
[Ac trans]
-1.7 -1.9 99 -6 -6 прохладно 1017.2 1015.4 -2.3
ЮЗ 3-5
{6}
2000 м дымка 10/10 200 м
[St]
-0.1 -0.4 98 -5 -5 прохладно 1017.5 1015.7
Ю 3-5
{8}
2000 м дымка 10/10 100 м
[St]
+0.1 -0.2 98 -5 -5 холодно 1016.7 1014.9
Ю 2-3
{5}
1000 м слаб. морось 10/10 100 м
[St]
+0.7 +0.7 100 -3 -3 прохладно 1015.9 1014.1 0.3
Ю 3-5
{6}
4000 м дымка 10/10 100 м
[St]
+2.1 +2.0 99 -2 -2 по сезону 1014.5 1012.7 +2.1 0.3
ЮЗ 5-7
{8}
4000 м слаб. дождь 10/10 200 м
[Frnb Ns]
+3.4 +3.3 99 -2 -2 по сезону 1013.4 1011.6
ЮЗ 4-6
{9}
4000 м слаб. дождь 10/10 300 м
[Frnb Ns]
+5.7 +5.4 98 +2 +2 по сезону 1012.5 1010.7
З 4-6
{8}
4000 м дымка {ливн. дождь, дождь} 4/4 600 м
[Cu hum]
+5.5 +4.8 95 +1 +1 по сезону 1013.8 1012.0 +0.7 2
З 3-3
{6}
4000 м слаб. ливневой дождь 8/8 600 м
[Cb cap]
+4.9 +4.2 95 +1 +1 по сезону 1015.6 1013.8 +2.1 3
З 4-6
{6}
4000 м дымка {ливн. дождь} 6/6 300 м
[Cu Sc]
+6.2 +5.0 92 +2 +2 по сезону 1016.8 1015.0
З 5-8
{11}
10 км {ливн. дождь} 8/8 600 м
[Cu Sc]
+6.9 +2.4 73 +3 +3 по сезону 1017.0 1015.2
З 3-6
{9}
4000 м в посл. час ливневой дождь 10/8 600 м
[Cb cap Ac As]
+4.7 +2.7 87 +1 +1 по сезону 1017.5 1015.7 1
СЗ 5-11
{11}
4000 м дымка {ливн. дождь} 10/6 600 м
[Cu Sc Ac As]
+4.7 +2.2 84 -0 -0 по сезону 1017.4 1015.6 +7.5 1
СЗ 2-3
{10}
4000 м слаб. ливневой дождь 10/8 300 м
[Cb cap Ac As]
+3.1 +2.4 95 -0 -0 по сезону 1017.7 1015.9
С 4-6
{6}
4000 м дымка {ливн. дождь} 8/5 600 м
[Sc Ac trans]
+2.1 +0.8 91 -3 -3 по сезону 1018.6 1016.8
С 3-4
{6}
4000 м дымка 4/3 1000 м
[Sc Ci fib]
+0.2 -0.5 95 -5 -5 прохладно 1020.1 1018.3 +0.2 2
СЗ 1-2
{4}
4000 м дымка 8/3 1000 м
[Sc Ac As Ci fib]
-0.9 -1.5 96 -3 -3 по сезону 1021.4 1019.6 -1.0 2
СЗ 1-2
{3}
4000 м дымка 9/9 1000 м
[Cu Sc]
+1.4 +1.1 98 -1 -1 по сезону 1022.5 1020.7
С 3-7
{7}
4000 м дымка 9/9 300 м
[Cu Sc As trans]
+3.9 +2.1 88 0 0 по сезону 1022.4 1020.6
С 4-6
{7}
10 км дымка 10/8 600 м
[Sc Ac As]
+3.3 +1.0 85 -1 -1 по сезону 1022.4 1020.6
С 3-4
{7}
4000 м дымка {дождь} 10/9 300 м
[Sc As trans]
+3.3 +1.7 89 -1 -1 по сезону 1022.5 1020.7 +4.0 0.0
С 3-5
{5}
4000 м дымка 10/8 1000 м
[Sc As trans]
+2.6 +1.1 90 -2 -2 по сезону 1022.8 1021.0
С 3-6
{6}
4000 м дымка 10/9 1500 м
[Sc As trans]
+2.3 +1.0 91 -2 -2 по сезону 1022.8 1021.0
Местоположение метеостанции Калининград (Калининградская область, Россия): широта 54.70 долгота 20.62 высота над уровнем моря 21 м.
В архиве по умолчанию представлена погода в Калининграде за последнюю неделю. Архивные данные за месяц целиком и за предыдущие месяцы, начиная с января 2011 года, Вы можете получить, выбрав интересующий диапазон дат из раскрывающегося списка и нажав кнопку "Найти!".
*Определитесь, кто Вы:
Внимание! Время в таблицах - всемирное. Для получения местного времени необходимо прибавить поправку, которая равна 2 ч.
Смотрите также архив погоды в соседних городах и на ближайших метеорологических станциях:
Партнеры нашего сайта:      
Пояснения к столбцам:
  • Ветер - указаны скорость ветра в м/с - средняя за 10 мин, порывы в срок и между сроками (в фигурных скобках) и направление, откуда дует ветер: С - северный,
  • СВ - северо-восточный, В - восточный, ЮВ - юго-восточный, Ю - южный, ЮЗ - юго-западный, З - западный, СЗ - северо-западный.
  • Видимость - горизонтальная дальность видимости в метрах или километрах. При видимости от 1 до 10 км при отсутствии осадков обычно наблюдается дымка, при ухудшении видимости до 1 км и менее - туман. В сухую погоду видимость может ухудшаться дымом, пылью или мглою.
  • Явления - указаны атмосферные явления, наблюдавшиеся в срок или в последний час перед сроком; фигурными скобками обозначены явления, наблюдавшиеся между сроками (за 1-3 часа до срока); квадратными скобками обозначены град или гололедные отложения с указанием их диаметра в мм.
  • Облачность - указаны через наклонную черту общая и нижняя облачность в баллах и высота нижней границы облаков в метрах; квадратными скобками обозначены формы облаков: Ci - перистые, Cs - перисто-слоистые, Cc - перисто-кучевые, Ac - высококучевые, As - высокослоистые, Sc - слоисто-кучевые, Ns - слоисто-дождевые, Cu - кучевые, Cb - кучево-дождевые. Подробнее классификацию облаков см. в Атласе облаков (PDF).
  • T - Температура воздуха - температура, измеренная на высоте 2 м над землей.
  • Td - Температура точки росы - температура, при понижении до которой содержащийся в воздухе водяной пар достигнет насыщения.
  • f - Относительная влажность воздуха - влажноcть воздуха, измеренная на высоте 2 м над землей.
  • Te - Эффективная температура - температура, которую ощущает одетый по сезону человек в тени. Характеристика душности погоды. При расчете учитывается влияние влажности воздуха и скорости ветра на теплоощущения человека.
  • Tes - Эффективная температура на солнце - температура, которую ощущает человек, с поправкой на солнечный нагрев. Характеристика знойности погоды. Зависит от высоты солнца над горизонтом, облачности и скорости ветра. Ночью, в пасмурную погоду, а также при ветре 12 м/с и более поправка равна нулю.
  • P - Атмосферное давление - приведенное к уровню моря атмосферное давление.
  • Po - Атмосферное давление - измеренное на уровне метеостанции атмосферное давление.
  • Tmin - Минимальная температура - минимум температуры воздуха на высоте 2 м над землей.
  • Tmax - Максимальная температура - максимум температуры воздуха на высоте 2 м над землей.
  • R - Количество осадков - Количество выпавших осадков за период времени, мм. При наведении курсора мыши на число - период времени, за который выпало указанное количество осадков.
  • R24 - Количество осадков - Количество выпавших осадков за 24 часа, мм.
  • S - Снежный покров - Высота снежного покрова, см. При наведении курсора мыши на число - состояние снежного покрова и степень покрытия местности в баллах.